Regional Weather Roundup
Issued by NWS

Home | Current Version | Previous Version | Graphics & Text | Print | Product List | Glossary Off
Versions: 1 2 3 4 5 6 7 8 9 10 11 12 13 14 15 16 17 18 19 20 21 22 23 24 25 26 27 28 29 30 31 32 33 34 35 36 37 38 39 40 41 42 43 44 45 46 47 48 49 50

000
ASUS43 KOAX 220610
RWRNE

WEATHER ROUNDUP FOR NEBRASKA
NATIONAL WEATHER SERVICE OMAHA NE
100 AM CDT MON SEP 22 2014

NOTES: SATELLITE DATA IS BEING USED TO AUGMENT CLOUD COVER ABOVE
       12000 FEET.
       "FAIR" INDICATES FEW OR NO CLOUDS BELOW 12,000 FEET WITH NO
       SIGNIFICANT WEATHER AND/OR OBSTRUCTIONS TO VISIBILITY.

  * THESE STATIONS DO NOT REPORT WEATHER SUCH AS RAIN...SNOW OR FOG.

NEZ001>004-019>022-054>056-220700-
NEBRASKA PANHANDLE

CITY           SKY/WX    TMP DP  RH WIND       PRES   REMARKS
SCOTTSBLUFF    PTCLDY    59  44  57 E10       30.26F
6HR MIN TEMP:  57; 6HR MAX TEMP:  71;

ALLIANCE       PTCLDY    54  42  64 SE9       30.27F
6HR MIN TEMP:  51; 6HR MAX TEMP:  71;

CHADRON        PTCLDY    64  38  38 S14G20    30.22F
6HR MIN TEMP:  57; 6HR MAX TEMP:  71;

KIMBALL        MOCLDY    57  40  53 SE13      30.28S
SIDNEY         PTCLDY    57  41  55 SE9       30.31S
6HR MIN TEMP:  57; 6HR MAX TEMP:  71;

$$

NEZ057>060-069>072-079>082-220700-
SOUTHWEST NEBRASKA

CITY           SKY/WX    TMP DP  RH WIND       PRES   REMARKS
NORTH PLATTE   CLOUDY    50  43  77 SE6       30.31R
6HR MIN TEMP:  48; 6HR MAX TEMP:  68;

IMPERIAL       MOCLDY    59  41  51 SE8       30.30F
6HR MIN TEMP:  59; 6HR MAX TEMP:  73;

LEXINGTON      PTCLDY    49  45  87 CALM      30.32R
MCCOOK         CLOUDY    58  44  60 E3        30.31S
6HR MIN TEMP:  57; 6HR MAX TEMP:  72;

OGALLALA       MOCLDY    63  42  47 SE7       30.29F
$$

NEZ005>010-023>029-035>040-094-220700-
NORTH CENTRAL NEBRASKA

CITY           SKY/WX    TMP DP  RH WIND       PRES   REMARKS
VALENTINE      PTCLDY    44  38  79 CALM      30.28F
6HR MIN TEMP:  44; 6HR MAX TEMP:  71;

AINSWORTH      CLEAR     43  39  86 S7        30.29S
BROKEN BOW     CLEAR     44  40  85 CALM      30.31S
6HR MIN TEMP:  43; 6HR MAX TEMP:  72;

O`NEILL        CLEAR     49  46  91 CALM      30.30S
ORD            CLEAR     43  41  93 CALM      30.30R
6HR MIN TEMP:  42; 6HR MAX TEMP:  68;

THEDFORD       CLEAR     49  40  70 SE6       30.30F
$$

NEZ041-046>049-061>064-073>077-083>087-220700-
SOUTH CENTRAL NEBRASKA

CITY           SKY/WX    TMP DP  RH WIND       PRES   REMARKS
GRAND ISLAND   CLEAR     50  44  80 CALM      30.31S
6HR MIN TEMP:  50; 6HR MAX TEMP:  69;

AURORA         CLEAR     47  44  89 CALM      30.30S
HASTINGS       CLEAR     51  43  74 E3        30.31R
6HR MIN TEMP:  50; 6HR MAX TEMP:  69;

HEBRON         CLEAR     47  44  89 CALM      30.30S
HOLDREGE       PTCLDY    50  43  77 CALM      30.31S
KEARNEY *      PTCLDY    54  43  66 CALM      30.32S
YORK           CLEAR     50  46  87 CALM      30.31R
$$

NEZ011>018-030>034-042>045-220700-
NORTHEAST NEBRASKA

CITY           SKY/WX    TMP DP  RH WIND       PRES   REMARKS
NORFOLK        CLEAR     47  44  90 NW3       30.29S
6HR MIN TEMP:  46; 6HR MAX TEMP:  67;

ALBION         CLEAR     45  41  88 CALM      30.30S
BLAIR          CLEAR     56  48  74 N3        30.27R
COLUMBUS *     CLEAR     46  43  87 NW3       30.30S
FREMONT        CLEAR     52  49  88 W5        30.28S
TEKAMAH        CLEAR     48  45  89 S3        30.27S
6HR MIN TEMP:  47; 6HR MAX TEMP:  69;

WAYNE          CLEAR     44  43  97 S5        30.29R
$$

NEZ050>053-065>068-078-088>093-220700-
SOUTHEAST NEBRASKA

CITY           SKY/WX    TMP DP  RH WIND       PRES   REMARKS
LINCOLN        CLEAR     50  46  86 N3        30.30R
6HR MIN TEMP:  49; 6HR MAX TEMP:  67;

OMAHA EPPLEY   CLEAR     54  50  86 CALM      30.28R
6HR MIN TEMP:  52; 6HR MAX TEMP:  67;

BEATRICE       CLEAR     48  46  93 CALM      30.29S
FALLS CITY     CLEAR     52  49  89 NW5       30.27R
6HR MIN TEMP:  52; 6HR MAX TEMP:  69;

NEBRASKA CITY    N/A     56  42  59 N3        30.28R
PLATTSMOUTH    CLEAR     55  47  73 CALM      30.28R
$$

NEZ044-045-051>053-067-220700-
OMAHA AREA

CITY           SKY/WX    TMP DP  RH WIND       PRES   REMARKS
OMAHA EPPLEY   CLEAR     54  50  86 CALM      30.28R
6HR MIN TEMP:  52; 6HR MAX TEMP:  67;

BLAIR          CLEAR     56  48  74 N3        30.27R
FREMONT        CLEAR     52  49  88 W5        30.28S
MILLARD        CLEAR     53  51  95 CALM      30.28R
OFFUTT AFB     CLEAR     48  48 100 NE1       30.27S
PLATTSMOUTH    CLEAR     55  47  73 CALM      30.28R
WAHOO          FAIR      51  48  87 W3        30.28R
$$


USA.gov is the U.S. government's official web portal to all federal, state and local government web resources and services.